CGYQB CYXU-CYXU

Flight info

Callsign CGYQB
Flight time 0h 3m
Altitude 1900
Route VFR CIRCUIT
Aircraft C171

Departure

Time 2026-05-05 01:39
Airport London International Airport (CYXU)

Arrival

Time 2026-05-05 01:43
Airport London International Airport (CYXU)
Time Latitude Longitude Altitude Speed Heading
2026-05-05 01:33 43.03638 -81.15694 894 ft 0 kts 46°
2026-05-05 01:35 43.03642 -81.15689 903 ft 4 kts 46°
2026-05-05 01:35 43.03650 -81.15624 903 ft 10 kts 139°
2026-05-05 01:35 43.03583 -81.15548 903 ft 16 kts 139°
2026-05-05 01:36 43.03503 -81.15447 903 ft 12 kts 131°
2026-05-05 01:36 43.03531 -81.15361 903 ft 9 kts 40°
2026-05-05 01:36 43.03542 -81.15335 904 ft 0 kts 91°
2026-05-05 01:38 43.03558 -81.15313 904 ft 14 kts 37°
2026-05-05 01:38 43.03573 -81.15217 905 ft 9 kts 141°
2026-05-05 01:38 43.03434 -81.15050 905 ft 50 kts 142°
2026-05-05 01:38 43.03145 -81.14730 1028 ft 57 kts 153°
2026-05-05 01:39 43.02806 -81.14293 1173 ft 70 kts 141°
2026-05-05 01:39 43.02496 -81.13807 1406 ft 69 kts 144°
2026-05-05 01:39 43.02167 -81.13262 1558 ft 79 kts 144°
2026-05-05 01:39 43.02128 -81.12431 1738 ft 105 kts 81°
2026-05-05 01:40 43.02618 -81.11567 1908 ft 122 kts 42°
2026-05-05 01:40 43.03382 -81.11268 1951 ft 105 kts 327°
2026-05-05 01:40 43.04059 -81.11572 1912 ft 102 kts 313°
2026-05-05 01:40 43.04593 -81.12007 2022 ft 84 kts 298°
2026-05-05 01:41 43.05039 -81.12443 2142 ft 73 kts 282°
2026-05-05 01:41 43.05372 -81.12970 2211 ft 75 kts 276°
2026-05-05 01:41 43.05650 -81.13566 2088 ft 74 kts 271°
2026-05-05 01:41 43.05892 -81.14105 1973 ft 60 kts 268°
2026-05-05 01:42 43.06025 -81.14630 1882 ft 58 kts 251°
2026-05-05 01:42 43.05917 -81.15149 1762 ft 55 kts 233°
2026-05-05 01:42 43.05690 -81.15613 1573 ft 64 kts 225°
2026-05-05 01:42 43.05431 -81.16061 1375 ft 55 kts 221°
2026-05-05 01:43 43.05169 -81.16362 1294 ft 47 kts 202°
2026-05-05 01:43 43.04854 -81.16516 1244 ft 52 kts 184°
2026-05-05 01:43 43.04495 -81.16312 1059 ft 58 kts 157°
2026-05-05 01:43 43.04186 -81.15946 947 ft 57 kts 152°
2026-05-05 01:44 43.03927 -81.15631 902 ft 36 kts 142°
2026-05-05 01:44 43.03696 -81.15364 962 ft 53 kts 147°
2026-05-05 01:44 43.03382 -81.14932 1060 ft 73 kts 141°
2026-05-05 01:44 43.03019 -81.14384 1211 ft 83 kts 137°
2026-05-05 01:45 43.02685 -81.13733 1426 ft 83 kts 135°
2026-05-05 01:45 43.02387 -81.13052 1641 ft 86 kts 132°
2026-05-05 01:45 43.02511 -81.12138 1851 ft 116 kts 71°
2026-05-05 01:45 43.03054 -81.11206 1906 ft 132 kts 51°
2026-05-05 01:46 43.03776 -81.10535 1961 ft 117 kts 350°
2026-05-05 01:46 43.04434 -81.10831 1958 ft 95 kts 302°
2026-05-05 01:46 43.04767 -81.11218 1846 ft 94 kts 290°
2026-05-05 01:46 43.05315 -81.12207 1853 ft 93 kts 283°
2026-05-05 01:47 43.05642 -81.12905 1976 ft 83 kts 271°
2026-05-05 01:47 43.05817 -81.13675 1966 ft 83 kts 264°
2026-05-05 01:47 43.05976 -81.14452 1893 ft 87 kts 263°
2026-05-05 01:47 43.06146 -81.15189 1877 ft 63 kts 258°
2026-05-05 01:48 43.06067 -81.15513 1830 ft 51 kts 230°
2026-05-05 01:48 43.05811 -81.15939 1627 ft 66 kts 221°
2026-05-05 01:48 43.05466 -81.16324 1489 ft 58 kts 210°
2026-05-05 01:48 43.05120 -81.16585 1262 ft 55 kts 189°
2026-05-05 01:49 43.04725 -81.16527 1116 ft 61 kts 154°
2026-05-05 01:49 43.04405 -81.16188 1028 ft 57 kts 152°
2026-05-05 01:49 43.04093 -81.15839 924 ft 57 kts 149°
2026-05-05 01:49 43.03855 -81.15546 902 ft 33 kts 146°
2026-05-05 01:50 43.03752 -81.15430 903 ft 6 kts 140°
2026-05-05 01:50 43.03749 -81.15426 903 ft 0 kts 140°
2026-05-05 01:50 43.03627 -81.15288 914 ft 37 kts 142°
2026-05-05 01:50 43.03403 -81.14992 960 ft 43 kts 146°
2026-05-05 01:51 43.03184 -81.14686 1017 ft 47 kts 140°
2026-05-05 01:51 43.02968 -81.14335 1071 ft 49 kts 142°
2026-05-05 01:51 43.02716 -81.13975 1153 ft 61 kts 137°
2026-05-05 01:51 43.02461 -81.13445 1301 ft 77 kts 104°
2026-05-05 01:52 43.02751 -81.12705 1414 ft 106 kts 51°
2026-05-05 01:52 43.03390 -81.12235 1607 ft 105 kts 345°
2026-05-05 01:52 43.04053 -81.12570 1742 ft 101 kts 309°
2026-05-05 01:52 43.04639 -81.13105 1809 ft 110 kts 303°
2026-05-05 01:53 43.05386 -81.13550 1907 ft 128 kts 332°
2026-05-05 01:53 43.06334 -81.13590 1785 ft 143 kts 357°
2026-05-05 01:53 43.07230 -81.13046 1656 ft 141 kts 45°
2026-05-05 01:53 43.07880 -81.12117 1535 ft 126 kts 46°
2026-05-05 01:54 43.08083 -81.11314 1397 ft 65 kts 135°
2026-05-05 01:54 43.07744 -81.11506 1205 ft 68 kts 219°
2026-05-05 01:54 43.07505 -81.11966 1277 ft 52 kts 186°
2026-05-05 01:54 43.07106 -81.11998 1093 ft 57 kts 193°
2026-05-05 01:55 43.06891 -81.12398 931 ft 43 kts 242°
2026-05-05 01:55 43.06813 -81.12654 927 ft 17 kts 244°
2026-05-05 01:55 43.06853 -81.12668 928 ft 11 kts 73°
2026-05-05 01:55 43.06881 -81.12581 928 ft 8 kts 65°
2026-05-05 01:56 43.06890 -81.12556 928 ft 0 kts 65°